User: anonymous   Login
Location: North Smoke Tower Site
(30.5430°N, 82.3390°W)
Time: 15:01:49
(UTC-04:00)
Language:

Cosmos 1980 Rocket - Orbit

View from above orbital plane
View from above orbital plane
View from above satellite
View from above satellite

Ground track
Ground track

The orbit data is extracted from the following two-line orbital elements,

1 19650U 88102B   17113.60476595 -.00000193 +00000-0 -73707-4 0  9998
2 19650 070.9972 129.8694 0016688 266.2959 093.6255 14.15754815467990
Epoch (UTC): 23 April 2017 14:30:51
Eccentricity: 0.0016688
inclination: 70.9972°
perigee height: 828 km
apogee height: 852 km
right ascension of ascending node: 129.8694°
argument of perigee: 266.2959°
revolutions per day: 14.15754815
mean anomaly at epoch: 93.6255°
orbit number at epoch: 46799

The dashed part of the orbit path shows where the satellite is in the earth's shadow,  

DLR